www.pogodaiklimat.ru

Погода и климат >> Архив погоды >> ОАЭ >> Fujairah


ПОГОДА в Fujairah

  • Прогноз погоды в Fujairah
  • Монитор погоды в Fujairah
  • Климат города

АРХИВ ПОГОДЫ в Fujairah

Время (UTC), дата Ветер
(напр.,м/с)
 
Видим.   Явления Облачность Т
(С)
Тd
(С)
f
(%)
Тe
(С)
Тes
(С)
Комфортность P
(гПа)
Po
(гПа)
Тmin
(С)
Tmax
(С)
R
(мм)
R24
(мм)
S
(см)
03 19.09 ЮЗ 3 6000 м мгла 8/8 600 м
[Sc]
+30.1 +24.8 73 +43 +43 опасность
перегрева
1008.3 1008.0
06 19.09 В 4 6000 м мгла ясно +32.8 +25.5 66 +48 +56 опасность
перегрева
1009.0 1009.0 +29.1
09 19.09 В 4 6000 м мгла ясно +33.5 +25.9 65 +49 +61 опасность
перегрева
1006.7 1001.6
12 19.09 В 4 6000 м мгла ясно +32.2 +26.6 72 +49 +53 опасность
перегрева
1005.6 1000.5
15 19.09 ЮВ 2 6000 м мгла ясно +30.3 +26.5 80 +46 +46 опасность
перегрева
1005.8 1006.0
18 19.09 В 2 6000 м мгла ясно +30.0 +26.8 83 +47 +47 опасность
перегрева
1006.6 1001.4 +34.0
21 19.09 Ю 2 6000 м мгла ясно +29.2 +26.4 85 +45 +45 опасность
перегрева
1004.6 1005.0
00 20.09 СВ 3 6000 м мгла ясно +29.2 +26.8 87 +46 +46 опасность
перегрева
1005.0 1005.0
03 20.09 З 2 6000 м мгла 1/1 600 м
[Sc]
+30.1 +26.6 82 +47 +47 опасность
перегрева
1006.7 1007.0
06 20.09 В 3 6000 м мгла ясно +32.8 +26.5 70 +50 +60 опасность
перегрева
1007.5 1008.0 +28.7
09 20.09 В 5 7000 м мгла ясно +33.1 +26.6 69 +50 +60 опасность
перегрева
1006.4 1006.0
12 20.09 В 4 7000 м мгла ясно +32.8 +26.2 68 +49 +53 опасность
перегрева
1004.8 1005.0
15 20.09 ЮВ 2 7000 м мгла ясно +31.0 +26.7 78 +48 +48 опасность
перегрева
1005.3 1000.2
18 20.09 ЮВ 2 7000 м мгла ясно +30.9 +26.4 77 +47 +47 опасность
перегрева
1006.5 1007.0 +33.9
21 20.09 ЮВ 2 6000 м мгла ясно +30.2 +26.8 82 +47 +47 опасность
перегрева
1005.6 1006.0
03 21.09 ЮВ 2 4000 м мгла ясно +29.4 +27.2 88 +47 +47 опасность
перегрева
1007.6 1008.0
06 21.09 В 2 7000 м мгла ясно +32.9 +25.8 66 +48 +60 опасность
перегрева
1008.5 1003.4 +28.9
09 21.09 В 4 7000 м мгла ясно +33.2 +26.8 69 +51 +63 опасность
перегрева
1007.1 1002.0
12 21.09 ЮВ 3 7000 м мгла ясно +32.8 +26.1 68 +49 +53 опасность
перегрева
1005.7 1006.0
15 21.09 ЮВ 3 7000 м мгла ясно +31.7 +25.8 71 +47 +47 опасность
перегрева
1006.0 1000.9
18 21.09 В 1 7000 м мгла ясно +30.8 +27.0 80 +48 +48 опасность
перегрева
1007.8 1008.0 +34.1
21 21.09 З 1 6000 м мгла ясно +30.3 +25.2 74 +44 +44 опасность
перегрева
1006.6 1007.0
00 22.09 ЮЗ 1 6000 м мгла ясно +29.1 +24.9 78 +42 +42 опасность
перегрева
1006.0 1006.0
03 22.09 ЮЗ 1 7000 м мгла ясно +29.5 +23.3 69 +40 +40 очень
душно
1007.6 1008.0
09 22.09 В 6 7000 м мгла ясно +35.1 +24.5 54 +48 +54 опасность
перегрева
1007.6 1008.0
12 22.09 ЮВ 4 7000 м мгла ясно +33.0 +26.7 70 +51 +54 опасность
перегрева
1006.5 1007.0
15 22.09 ЮВ 3 7000 м мгла ясно +31.5 +25.7 71 +46 +46 опасность
перегрева
1007.2 1007.0
18 22.09 ЮВ 2 7000 м мгла ясно +31.1 +25.0 70 +45 +45 опасность
перегрева
1008.3 1008.0 +39.2
21 22.09 ЮЗ 1 7000 м мгла ясно +30.1 +25.6 77 +44 +44 опасность
перегрева
1008.2 1003.0
00 23.09 Ю 1 7000 м мгла ясно +29.2 +25.6 81 +43 +43 опасность
перегрева
1008.1 1008.0
03 23.09 ЮЗ 2 5000 м мгла 3/3 600 м
[Sc]
+29.3 +27.3 89 +47 +47 опасность
перегрева
1009.8 1004.5
06 23.09 ЮВ 2 7000 м мгла ясно +35.1 +25.3 57 +49 +62 опасность
перегрева
1010.3 1010.0 +28.7
09 23.09 В 4 7000 м мгла ясно +33.8 +25.0 60 +47 +58 опасность
перегрева
1009.1 1009.0
12 23.09 В 3 7000 м мгла ясно +34.6 +21.4 46 +42 +46 опасность
перегрева
1007.7 1008.0
15 23.09 ЮВ 2 7000 м мгла ясно +31.6 +25.3 69 +46 +46 опасность
перегрева
1007.9 1008.0
18 23.09 ЮВ 1 7000 м мгла ясно +30.9 +25.3 72 +45 +45 опасность
перегрева
1008.8 1009.0 +35.6
21 23.09 ЮВ 2 7000 м мгла ясно +29.4 +26.2 83 +45 +45 опасность
перегрева
1008.0 1008.0
00 24.09 Ю 3 6000 м мгла 4/0
[Ac trans]
+28.8 +25.0 80 +42 +42 опасность
перегрева
1007.0 1007.0
03 24.09 В 1 7000 м мгла ясно +29.5 +24.7 75 +42 +43 опасность
перегрева
1008.0 1008.0
06 24.09 ЮВ 2 7000 м мгла ясно +33.4 +27.0 69 +51 +63 опасность
перегрева
1009.3 1009.0 +28.6
09 24.09 В 4 7000 м мгла 3/1 600 м
[Sc Ci fib]
+35.7 +26.0 57 +51 +62 опасность
перегрева
1007.2 1002.1
12 24.09 В 4 7000 м мгла ясно +34.3 +26.9 65 +52 +56 опасность
перегрева
1006.3 1006.0
15 24.09 В 2 7000 м мгла ясно +31.8 +27.5 78 +51 +51 опасность
перегрева
1006.9 1007.0
18 24.09 ЮЗ 2 6000 м мгла ясно +32.1 +26.0 70 +48 +48 опасность
перегрева
1007.8 1008.0 +36.5
21 24.09 ЮЗ 1 7000 м мгла ясно +31.1 +24.9 70 +45 +45 опасность
перегрева
1006.5 1007.0
00 25.09 С 1 5000 м мгла ясно +30.1 +24.5 72 +42 +42 опасность
перегрева
1005.2 1005.0
03 25.09 СВ 1 8000 м мгла ясно +31.2 +22.5 60 +41 +41 опасность
перегрева
1006.7 1007.0
06 25.09 СВ 5 7000 м мгла ясно +34.1 +26.1 63 +50 +56 опасность
перегрева
1008.2 1008.0 +30.1
09 25.09 В 5 7000 м мгла ясно +33.4 +27.9 73 +54 +62 опасность
перегрева
1006.6 1007.0
12 25.09 СВ 5 5000 м мгла ясно +32.9 +28.4 77 +54 +57 опасность
перегрева
1004.6 1005.0
15 25.09 СВ 2 6000 м мгла ясно +31.8 +27.0 76 +50 +50 опасность
перегрева
1005.7 1006.0
18 25.09 Ю 2 7000 м мгла ясно +31.4 +27.1 78 +49 +49 опасность
перегрева
1006.9 1007.0 +34.6
21 25.09 Ю 1 7000 м мгла ясно +31.0 +26.2 76 +47 +47 опасность
перегрева
1006.1 1006.0
00 26.09 СЗ 5 6000 м мгла ясно +31.9 +24.2 64 +44 +44 опасность
перегрева
1005.4 1005.0

 

Местоположение метеостанции Fujairah (ОАЭ): широта 25.10 долгота 56.33 высота над уровнем моря 28 м.

В архиве по умолчанию представлена погода в Fujairah за последнюю неделю. Архивные данные за месяц целиком и за предыдущие месяцы, начиная с января 2011 года, Вы можете получить, выбрав интересующий диапазон дат из раскрывающегося списка и нажав кнопку "Ввод!".


*Определитесь, кто Вы:
робот инопланетянин человек

Внимание! Время в таблицах - всемирное. Для получения местного времени необходимо прибавить поправку, которая в Fujairah равна 4 ч.

Смотрите также архив погоды в соседних городах и на ближайших метеорологических станциях:

Погода в Diba (Оман) (58 км)
Погода в Ras Al Khaimah Int Airport (ОАЭ) (70 км)
Погода в Sohar Majis (Оман) (76 км)
Погода в Sharjah (ОАЭ) (85 км)
Погода в Dubai (ОАЭ) (102 км)
Погода в Buraimi (Оман) (112 км)
Погода в Al Ain Int Airport (ОАЭ) (118 км)
Погода в Khasab Airport (Оман) (119 км)
Погода в Dubai Al Maktoum Int Airport (ОАЭ) (120 км)
Погода в Khasab (Оман) (124 км)

Пояснения к столбцам:

Ветер - указаны скорость ветра в м/с - средняя за 10 мин, порывы в срок и между сроками (в фигурных скобках) и направление, откуда дует ветер: С - северный, СВ - северо-восточный, В - восточный, ЮВ - юго-восточный, Ю - южный, ЮЗ - юго-западный, З - западный, СЗ - северо-западный.
Видимость - горизонтальная дальность видимости в метрах или километрах. При видимости от 1 до 10 км при отсутствии осадков обычно наблюдается дымка, при ухудшении видимости до 1 км и менее - туман. В сухую погоду видимость может ухудшаться дымом, пылью или мглою.
Явления - указаны атмосферные явления, наблюдавшиеся в срок или в последний час перед сроком; фигурными скобками обозначены явления, наблюдавшиеся между сроками (за 1-3 часа до срока); квадратными скобками обозначены град или гололедные отложения с указанием их диаметра в мм.
Облачность - указаны через наклонную черту общая и нижняя облачность в баллах и высота нижней границы облаков в метрах; квадратными скобками обозначены формы облаков: Ci - перистые, Cs - перисто-слоистые, Cc - перисто-кучевые, Ac - высококучевые, As - высокослоистые, Sc - слоисто-кучевые, Ns - слоисто-дождевые, Cu - кучевые, Cb - кучево-дождевые. Подробнее классификацию облаков см. в Атласе облаков (PDF).
T - Температура воздуха - температура, измеренная на высоте 2 м над землей.
Td - Температура точки росы - температура, при понижении до которой содержащийся в воздухе водяной пар достигнет насыщения.
f - Относительная влажность воздуха - влажноcть воздуха, измеренная на высоте 2 м над землей.
Te - Эффективная температура - температура, которую ощущает одетый по сезону человек в тени. Характеристика душности погоды. При расчете учитывается влияние влажности воздуха и скорости ветра на теплоощущения человека.
Tes - Эффективная температура на солнце - температура, которую ощущает человек, с поправкой на солнечный нагрев. Характеристика знойности погоды. Зависит от высоты солнца над горизонтом, облачности и скорости ветра. Ночью, в пасмурную погоду, а также при ветре 12 м/с и более поправка равна нулю.
P - Атмосферное давление - приведенное к уровню моря атмосферное давление.
Po - Атмосферное давление - измеренное на уровне метеостанции атмосферное давление.
Tmin - Минимальная температура - минимум температуры воздуха на высоте 2 м над землей.
Tmax - Максимальная температура - максимум температуры воздуха на высоте 2 м над землей.
R - Количество осадков - Количество выпавших осадков за период времени, мм. При наведении курсора мыши на число - период времени, за который выпало указанное количество осадков.
R24 - Количество осадков - Количество выпавших осадков за 24 часа, мм.
S - Снежный покров - Высота снежного покрова, см. При наведении курсора мыши на число - состояние снежного покрова и степень покрытия местности в баллах.